Ardabil, Iran

8:29 AM +0330 on October 24, 2019 (GMT +0330)
Ardabil

Weather History for OITL - August, 2019

Change the Weather History Date:

Saturday, August 17, 2019

  Actual Average Record
Temperature  
Mean Temperature 63 °F -  
Max Temperature 80 °F - - ()
Min Temperature 46 °F - - ()
Degree Days  
Heating Degree Days 2    
Growing Degree Days 13 (Base 50)    
Moisture  
Dew Point 49 °F    
Average Humidity 54    
Maximum Humidity 100    
Minimum Humidity 30    
Precipitation  
Precipitation 0.00 in - - ()
Sea Level Pressure  
Sea Level Pressure 29.92 in    
Wind  
Wind Speed 8 mph ()    
Max Wind Speed 29 mph    
Max Gust Speed 36 mph    
Visibility 6.1 miles    
Events      
T = Trace of Precipitation, MM = Missing Value Source: Averaged Metar Reports

Daily Weather History Graph

Daily Weather History Graph

Search for Another Location

Airport or City:

Astronomy

Aug. 17, 2019 Rise Set
Actual Time 6:32 AM +0430 8:08 PM +0430
Civil Twilight 6:04 AM +0430 8:36 PM +0430
Nautical Twilight 5:30 AM +0430 9:09 PM +0430
Astronomical Twilight 4:54 AM +0430 9:45 PM +0430
Moon 9:26 PM +0430 (8/17) 7:58 AM +0430 (8/17)
Length of Visible Light 14h 32m
Length of Day
13h 36m
Full, 97% of the Moon is Illuminated
Aug 17
Full
Aug 23
Last Quarter
Aug 30
New
Sep 6
First Quarter
Sep 14
Full

Hourly Weather History & Observations

Time (+0430) Temp. Windchill Dew Point Humidity Pressure Visibility Wind Dir Wind Speed Gust Speed Precip Events Conditions
12:22 AM 59.0 °F - 57.2 °F 94% 29.92 in - SSE 4.6 mph - N/A   Clear
1:20 AM 53.6 °F - 51.8 °F 94% 29.92 in - Calm Calm - N/A   Clear
2:20 AM 51.8 °F - 50.0 °F 94% 29.92 in - Calm Calm - N/A   Clear
3:21 AM 55.4 °F - 53.6 °F 94% 29.92 in - Calm Calm - N/A   Clear
4:20 AM 50.0 °F - 46.4 °F 87% 29.92 in - Calm Calm - N/A   Clear
5:20 AM 48.2 °F - 46.4 °F 93% 29.92 in 5.0 mi Calm Calm - N/A   Unknown
6:20 AM 46.4 °F 42.9 °F 46.4 °F 100% 29.92 in 5.0 mi East 6.9 mph - N/A   Unknown
6:30 AM 46.4 °F 42.9 °F 46.4 °F 100% 29.92 in 5.0 mi East 6.9 mph - N/A   Unknown
7:20 AM 53.6 °F - 48.2 °F 82% 29.95 in 6.2 mi Calm Calm - N/A   Partly Cloudy
7:30 AM 53.6 °F - 48.2 °F 82% 29.95 in 6.2 mi Calm Calm - N/A   Partly Cloudy
8:21 AM 59.0 °F - 46.4 °F 63% 29.95 in 6.2 mi Calm Calm - N/A   Partly Cloudy
8:30 AM 59.0 °F - 46.4 °F 63% 29.95 in 6.2 mi Calm Calm - N/A   Partly Cloudy
9:20 AM 68.0 °F - 48.2 °F 49% 29.95 in - Calm Calm - N/A   Clear
9:30 AM 68.0 °F - 48.2 °F 49% 29.95 in - Calm Calm - N/A   Clear
10:20 AM 71.6 °F - 51.8 °F 50% 29.95 in - Calm Calm - N/A   Clear
10:30 AM 71.6 °F - 51.8 °F 50% 29.95 in - Calm Calm - N/A   Clear
11:00 AM 73.4 °F - 51.8 °F 47% 29.95 in - NE 4.6 mph - N/A   Clear
11:20 AM 75.2 °F - 50.0 °F 41% 29.95 in 6.2 mi East 13.8 mph - N/A   Partly Cloudy
11:30 AM 75.2 °F - 50.0 °F 41% 29.95 in 6.2 mi East 13.8 mph - N/A   Partly Cloudy
12:00 PM 77.0 °F - 46.4 °F 34% 29.95 in 6.2 mi ENE 18.4 mph - N/A   Partly Cloudy
12:21 PM 77.0 °F - 46.4 °F 34% 29.95 in 6.2 mi East 18.4 mph - N/A   Partly Cloudy
12:30 PM 77.0 °F - 46.4 °F 34% 29.95 in 6.2 mi East 18.4 mph - N/A   Partly Cloudy
1:20 PM 80.6 °F - 46.4 °F 30% 29.92 in 6.2 mi ENE 18.4 mph - N/A   Partly Cloudy
1:30 PM 80.6 °F - 46.4 °F 30% 29.92 in 6.2 mi ENE 18.4 mph - N/A   Partly Cloudy
2:20 PM 80.6 °F - 50.0 °F 34% 29.92 in 6.2 mi NE 24.2 mph - N/A   Partly Cloudy
2:30 PM 80.6 °F - 50.0 °F 34% 29.92 in 6.2 mi NE 24.2 mph - N/A   Partly Cloudy
3:20 PM 80.6 °F - 50.0 °F 34% 29.89 in 6.2 mi NE 19.6 mph 33.4 mph N/A   Partly Cloudy
3:30 PM 80.6 °F - 50.0 °F 34% 29.89 in 6.2 mi NE 19.6 mph 33.4 mph N/A   Partly Cloudy
4:20 PM 80.6 °F - 48.2 °F 32% 29.89 in 6.2 mi NE 28.8 mph - N/A   Partly Cloudy
4:30 PM 80.6 °F - 48.2 °F 32% 29.89 in 6.2 mi NE 28.8 mph - N/A   Partly Cloudy
5:20 PM 77.0 °F - 50.0 °F 39% 29.89 in 6.2 mi NE 19.6 mph 33.4 mph N/A   Partly Cloudy
5:30 PM 77.0 °F - 50.0 °F 39% 29.89 in 6.2 mi NE 19.6 mph 33.4 mph N/A   Partly Cloudy
6:00 PM 75.2 °F - 50.0 °F 41% 29.89 in 6.2 mi NE 18.4 mph 35.7 mph N/A   Partly Cloudy
6:20 PM 73.4 °F - 50.0 °F 44% 29.86 in 6.2 mi NE 18.4 mph 33.4 mph N/A   Partly Cloudy
6:30 PM 73.4 °F - 50.0 °F 44% 29.86 in 6.2 mi NE 18.4 mph 33.4 mph N/A   Partly Cloudy
7:00 PM 71.6 °F - 50.0 °F 46% 29.86 in 6.2 mi ENE 18.4 mph 33.4 mph N/A   Partly Cloudy
7:20 PM 69.8 °F - 48.2 °F 46% 29.89 in 6.2 mi ENE 21.9 mph - N/A   Partly Cloudy
7:30 PM 69.8 °F - 48.2 °F 46% 29.89 in 6.2 mi ENE 21.9 mph - N/A   Partly Cloudy
8:00 PM 68.0 °F - 50.0 °F 52% 29.89 in 6.2 mi ENE 19.6 mph - N/A   Partly Cloudy
8:22 PM 68.0 °F - 48.2 °F 49% 29.89 in 6.2 mi ENE 19.6 mph - N/A   Partly Cloudy
9:21 PM 66.2 °F - 44.6 °F 46% 29.92 in 6.2 mi ENE 18.4 mph - N/A   Partly Cloudy
10:21 PM 64.4 °F - 42.8 °F 45% 29.92 in 6.2 mi East 13.8 mph - N/A   Partly Cloudy
11:20 PM 60.8 °F - 42.8 °F 52% 29.95 in - SE 9.2 mph - N/A   Clear